Torna al catalogo

STARLINK-37003

AttivoComunicazioniVLEO
NORAD 68170·PAYLOAD·🇺🇸 United States

Lanciato Mar 14, 2026 da Vandenberg Space Force Base

Loading…

Prossimi Passaggi (prossime 24 ore)

TLE

AggiornatoSource: CelesTrak SupGP

Epoca: Sep 14, 2026, 23:23 UTC

1 68170C 26050D   26257.97479167  .00021402  00000+0  63246-3 0  2576
2 68170  53.1575 103.2824 0001229  81.6209 278.1037 15.34373082    15

Traccia STARLINK-37003 in tempo reale con AllMySat

Download on the App Store